Location: Kikino
(54.4440°N, 112.0940°W)
Time: 14:19:39
(UTC+00:00)

AO-27 - Pass Details

Date: 02 December 2023
Orbit: 784 x 797 km, 98.8° (Epoch: 28 February)

Event Time Altitude Azimuth Distance (km) Brightness Sun altitude
Exits shadow 00:56:16 10° 27° (NNE) 2,350 9.7 -14.7°
Drops below altitude 10° 00:56:32 10° 24° (NNE) 2,378 9.8 -14.7°
Sets 01:00:41 0° 352° (N) 3,315 10.8 -15.3°
